,,Stat1,,Stat2,,Stat3,,Stat4,,Wind1,,Wind1,
time,status,PR1M_SUM,status,RH1M_AVG,status,SR1M_AVG,status,TA1M_AVG,status,W1dAve1m,status,W1sAve1m,
2000-03-18, 00:01:00,VALID,0,VALID,93.6969,VALID,-0.0339617,VALID,19.9755,VALID,90,VALID,0.340144,
2000-03-18, 00:02:00,VALID,0,VALID,93.276,VALID,-0.0339617,VALID,19.9882,VALID,90,VALID,0.0865234,
2000-03-18, 00:03:00,VALID,0,VALID,93.1666,VALID,-0.0169808,VALID,19.978,VALID,97,VALID,0.00534539,
2000-03-18, 00:04:00,VALID,0,VALID,93.3065,VALID,-0.0169808,VALID,19.9725,VALID,99,VALID,0,
2000-03-18, 00:05:00,VALID,0,VALID,93.2468,VALID,0,VALID,19.9782,VALID,99,VALID,0,
2000-03-18, 00:06:01,VALID,0,VALID,93.0827,VALID,-0.0169808,VALID,19.982,VALID,99,VALID,0,
2000-03-18, 00:07:00,VALID,0,VALID,92.925,VALID,-0.0339617,VALID,19.972,VALID,99,VALID,0,
2000-03-18, 00:08:00,VALID,0,VALID,92.8894,VALID,-0.0169808,VALID,19.9559,VALID,99,VALID,0,
2000-03-18, 00:09:00,VALID,0,VALID,92.9861,VALID,-0.0339617,VALID,19.9429,VALID,99,VALID,0,
2000-03-18, 00:10:00,VALID,0,VALID,92.7381,VALID,-0.0509425,VALID,19.9305,VALID,99,VALID,0,
2000-03-18, 00:11:00,VALID,0,VALID,92.2676,VALID,-0.0339617,VALID,19.9074,VALID,99,VALID,0,
2000-03-18, 00:12:00,VALID,0,VALID,92.4952,VALID,-0.0509425,VALID,19.8784,VALID,99,VALID,0,
2000-03-18, 00:13:00,VALID,0,VALID,92.7051,VALID,0,VALID,19.8525,VALID,99,VALID,0,
2000-03-18, 00:14:00,VALID,0,VALID,92.8996,VALID,-0.0169808,VALID,19.8398,VALID,99,VALID,0,
2000-03-18, 00:15:00,VALID,0,VALID,93.4057,VALID,-0.0509425,VALID,19.8135,VALID,99,VALID,0,
2000-03-18, 00:16:00,VALID,0,VALID,93.805,VALID,-0.0339617,VALID,19.8232,VALID,128,VALID,0,
2000-03-18, 00:17:00,VALID,0,VALID,93.8686,VALID,-0.0339617,VALID,19.8076,VALID,139,VALID,0,
2000-03-18, 00:18:00,VALID,0,VALID,93.6219,VALID,-0.0169808,VALID,19.7882,VALID,155,VALID,0,
2000-03-18, 00:19:00,VALID,0,VALID,93.5672,VALID,-0.0339617,VALID,19.7526,VALID,201,VALID,0,
2000-03-18, 00:20:00,VALID,0,VALID,93.8292,VALID,-0.0339617,VALID,19.7107,VALID,231,VALID,0,
2000-03-18, 00:21:00,VALID,0,VALID,94.2005,VALID,-0.0339617,VALID,19.6814,VALID,241,VALID,0,
2000-03-18, 00:22:00,VALID,0,VALID,94.2844,VALID,-0.0339617,VALID,19.6302,VALID,247,VALID,0,
2000-03-18, 00:23:00,VALID,0,VALID,94.573,VALID,-0.0339617,VALID,19.614,VALID,253,VALID,0,
2000-03-18, 00:24:00,VALID,0,VALID,94.5781,VALID,-0.0679233,VALID,19.5817,VALID,250,VALID,0.10114,
2000-03-18, 00:25:00,VALID,0,VALID,94.5641,VALID,-0.0169808,VALID,19.5658,VALID,264,VALID,0.43935,
2000-03-18, 00:26:00,VALID,0,VALID,94.7727,VALID,-0.0169808,VALID,19.5457,VALID,274,VALID,0.0252878,
2000-03-18, 00:27:00,VALID,0,VALID,94.863,VALID,-0.0169808,VALID,19.5072,VALID,263,VALID,0,
2000-03-18, 00:28:01,VALID,0,VALID,94.9291,VALID,-0.0339617,VALID,19.4846,VALID,252,VALID,0.0875,
2000-03-18, 00:29:00,VALID,0,VALID,94.7409,VALID,-0.0169808,VALID,19.4362,VALID,239,VALID,0.413035,
2000-03-18, 00:30:00,VALID,0,VALID,95.0117,VALID,-0.0339617,VALID,19.4076,VALID,234,VALID,0,
2000-03-18, 00:31:00,VALID,0,VALID,95.2661,VALID,-0.0339617,VALID,19.3748,VALID,235,VALID,0,
2000-03-18, 00:32:00,VALID,0,VALID,95.0461,VALID,-0.0509425,VALID,19.3199,VALID,235,VALID,0,
2000-03-18, 00:33:00,VALID,0,VALID,94.9507,VALID,-0.0339617,VALID,19.2754,VALID,235,VALID,0,
2000-03-18, 00:34:00,VALID,0,VALID,94.8528,VALID,-0.0339617,VALID,19.2168,VALID,235,VALID,0,
2000-03-18, 00:35:00,VALID,0,VALID,95.4543,VALID,0,VALID,19.2143,VALID,235,VALID,0,
2000-03-18, 00:36:00,VALID,0,VALID,95.7607,VALID,-0.0339617,VALID,19.2141,VALID,235,VALID,0,
2000-03-18, 00:37:00,VALID,0,VALID,96.0608,VALID,-0.0679233,VALID,19.2173,VALID,235,VALID,0,
2000-03-18, 00:38:00,VALID,0,VALID,96.221,VALID,-0.0339617,VALID,19.2332,VALID,235,VALID,0,
2000-03-18, 00:39:01,VALID,0,VALID,95.5802,VALID,-0.0339617,VALID,19.1818,VALID,235,VALID,0,
2000-03-18, 00:40:00,VALID,0,VALID,95.5891,VALID,-0.0169808,VALID,19.1463,VALID,235,VALID,0,
2000-03-18, 00:41:00,VALID,0,VALID,96.3825,VALID,-0.0339617,VALID,19.1818,VALID,235,VALID,0,
2000-03-18, 00:42:00,VALID,0,VALID,96.7386,VALID,0.0339617,VALID,19.2131,VALID,235,VALID,0,
2000-03-18, 00:43:00,VALID,0,VALID,97.2383,VALID,0.0509425,VALID,19.2938,VALID,235,VALID,0,
2000-03-18, 00:44:00,VALID,0,VALID,97.4062,VALID,0.0169808,VALID,19.3291,VALID,235,VALID,0,
2000-03-18, 00:45:00,VALID,0,VALID,97.5028,VALID,0.0169808,VALID,19.3716,VALID,235,VALID,0,
2000-03-18, 00:46:00,VALID,0,VALID,97.4647,VALID,0,VALID,19.3746,VALID,235,VALID,0,
2000-03-18, 00:47:00,VALID,0,VALID,97.3884,VALID,0.0169808,VALID,19.3875,VALID,235,VALID,0,
2000-03-18, 00:48:00,VALID,0,VALID,97.2905,VALID,0.0509425,VALID,19.3877,VALID,235,VALID,0,
2000-03-18, 00:49:01,VALID,0,VALID,97.2129,VALID,0.0339617,VALID,19.3905,VALID,235,VALID,0,
2000-03-18, 00:50:01,VALID,0,VALID,97.1633,VALID,0.0339617,VALID,19.4074,VALID,235,VALID,0,
2000-03-18, 00:51:00,VALID,0,VALID,97.1163,VALID,0.0169808,VALID,19.4069,VALID,235,VALID,0,
2000-03-18, 00:52:00,VALID,0,VALID,96.7653,VALID,0,VALID,19.378,VALID,235,VALID,0,
2000-03-18, 00:53:00,VALID,0,VALID,96.4855,VALID,0.0169808,VALID,19.3681,VALID,235,VALID,0,
2000-03-18, 00:54:00,VALID,0,VALID,96.5491,VALID,0,VALID,19.3612,VALID,235,VALID,0,
2000-03-18, 00:55:00,VALID,0,VALID,96.675,VALID,0,VALID,19.3684,VALID,235,VALID,0,
2000-03-18, 00:56:00,VALID,0,VALID,96.5466,VALID,0.0169808,VALID,19.3458,VALID,235,VALID,0,
2000-03-18, 00:57:00,VALID,0,VALID,95.9553,VALID,0,VALID,19.2976,VALID,235,VALID,0,
2000-03-18, 00:58:00,VALID,0,VALID,95.2966,VALID,0.0679233,VALID,19.2196,VALID,235,VALID,0,
2000-03-18, 00:59:00,VALID,0,VALID,95.4199,VALID,0,VALID,19.1915,VALID,235,VALID,0,
2000-03-18, 01:00:00,VALID,0,VALID,95.6437,VALID,0,VALID,19.1488,VALID,235,VALID,0,
2000-03-18, 01:01:01,VALID,0,VALID,95.687,VALID,0.0169808,VALID,19.1239,VALID,235,VALID,0,
2000-03-18, 01:02:00,VALID,0,VALID,96.5135,VALID,0,VALID,19.1336,VALID,235,VALID,0,
2000-03-18, 01:03:00,VALID,0,VALID,97.1773,VALID,0.0169808,VALID,19.1617,VALID,235,VALID,0,
2000-03-18, 01:04:00,VALID,0,VALID,97.251,VALID,0,VALID,19.1749,VALID,235,VALID,0,
2000-03-18, 01:05:00,VALID,0,VALID,96.1753,VALID,0.0339617,VALID,19.0752,VALID,231,VALID,0,
2000-03-18, 01:06:00,VALID,0,VALID,95.926,VALID,0.0169808,VALID,19.0166,VALID,208,VALID,0,
2000-03-18, 01:07:00,VALID,0,VALID,96.2592,VALID,0,VALID,19.001,VALID,208,VALID,0,
2000-03-18, 01:08:00,VALID,0,VALID,96.4957,VALID,0.0169808,VALID,19.001,VALID,208,VALID,0,
2000-03-18, 01:09:00,VALID,0,VALID,96.3864,VALID,0,VALID,18.9851,VALID,204,VALID,0,
2000-03-18, 01:10:01,VALID,0,VALID,96.6954,VALID,0,VALID,18.9784,VALID,201,VALID,0,
2000-03-18, 01:11:00,VALID,0,VALID,96.5657,VALID,0,VALID,18.9458,VALID,173,VALID,0,
2000-03-18, 01:12:01,VALID,0,VALID,96.6966,VALID,0.0339617,VALID,18.9387,VALID,127,VALID,0,
2000-03-18, 01:13:00,VALID,0,VALID,96.6432,VALID,0,VALID,18.9332,VALID,127,VALID,0,
2000-03-18, 01:14:00,VALID,0,VALID,96.8327,VALID,0.0339617,VALID,18.9163,VALID,127,VALID,0,
2000-03-18, 01:15:00,VALID,0,VALID,97.218,VALID,0.0339617,VALID,18.962,VALID,127,VALID,0,
2000-03-18, 01:16:00,VALID,0,VALID,97.4774,VALID,0.0169808,VALID,18.991,VALID,127,VALID,0,
2000-03-18, 01:17:00,VALID,0,VALID,97.4927,VALID,0.0679233,VALID,19.0005,VALID,127,VALID,0,
2000-03-18, 01:18:00,VALID,0,VALID,97.4214,VALID,0.0169808,VALID,19.004,VALID,127,VALID,0,
2000-03-18, 01:19:00,VALID,0,VALID,97.513,VALID,0,VALID,19.0365,VALID,127,VALID,0,
2000-03-18, 01:20:00,VALID,0,VALID,97.4354,VALID,0.0339617,VALID,19.0395,VALID,127,VALID,0,
2000-03-18, 01:21:00,VALID,0,VALID,97.3579,VALID,0.0339617,VALID,19.0457,VALID,127,VALID,0,
2000-03-18, 01:22:00,VALID,0,VALID,96.731,VALID,0,VALID,18.9936,VALID,127,VALID,0,
2000-03-18, 01:23:01,VALID,0,VALID,96.4169,VALID,0.0169808,VALID,18.9687,VALID,127,VALID,0,
2000-03-18, 01:24:00,VALID,0,VALID,96.4309,VALID,0.0169808,VALID,18.9364,VALID,113,VALID,0,
2000-03-18, 01:25:00,VALID,0,VALID,97.3718,VALID,0.0169808,VALID,19.0102,VALID,97,VALID,0.552015,
2000-03-18, 01:26:00,VALID,0,VALID,97.7826,VALID,0.0339617,VALID,19.0681,VALID,96,VALID,0.528783,
2000-03-18, 01:27:00,VALID,0,VALID,97.9136,VALID,0.0169808,VALID,19.1209,VALID,96,VALID,0.47237,
2000-03-18, 01:28:00,VALID,0,VALID,97.8996,VALID,0,VALID,19.1271,VALID,96,VALID,0.15293,
2000-03-18, 01:29:00,VALID,0,VALID,97.7877,VALID,0.0339617,VALID,19.1294,VALID,96,VALID,0.0333059,
2000-03-18, 01:30:00,VALID,0,VALID,97.5499,VALID,0.0169808,VALID,19.1038,VALID,96,VALID,0,
2000-03-18, 01:31:00,VALID,0,VALID,97.5448,VALID,0.0339617,VALID,19.1172,VALID,89,VALID,0.142144,
2000-03-18, 01:32:00,VALID,0,VALID,97.5333,VALID,0.0169808,VALID,19.1043,VALID,89,VALID,0.277344,
2000-03-18, 01:33:01,VALID,0,VALID,97.7292,VALID,0.0169808,VALID,19.153,VALID,89,VALID,0.21254,
2000-03-18, 01:34:00,VALID,0,VALID,97.6999,VALID,0.0169808,VALID,19.1592,VALID,89,VALID,0,
2000-03-18, 01:35:00,VALID,0,VALID,97.6363,VALID,0,VALID,19.1853,VALID,89,VALID,0,
2000-03-18, 01:36:00,VALID,0,VALID,97.6147,VALID,0,VALID,19.1947,VALID,77,VALID,0.2375,
2000-03-18, 01:37:00,VALID,0,VALID,97.6923,VALID,0.0169808,VALID,19.2533,VALID,58,VALID,0.359992,
2000-03-18, 01:38:00,VALID,0,VALID,97.7266,VALID,0.0339617,VALID,19.2817,VALID,53,VALID,0,
2000-03-18, 01:39:00,VALID,0,VALID,97.5028,VALID,0,VALID,19.2888,VALID,53,VALID,0,
2000-03-18, 01:40:00,VALID,0,VALID,97.1455,VALID,0.0169808,VALID,19.2687,VALID,53,VALID,0,
2000-03-18, 01:41:00,VALID,0,VALID,96.4283,VALID,0.0339617,VALID,19.2205,VALID,62,VALID,0,
2000-03-18, 01:42:00,VALID,0,VALID,95.7836,VALID,-0.0849042,VALID,19.1636,VALID,77,VALID,0,
2000-03-18, 01:43:00,VALID,0,VALID,96.3991,VALID,-0.0509425,VALID,19.1604,VALID,111,VALID,0,
2000-03-18, 01:44:00,VALID,0,VALID,96.8505,VALID,-0.0849042,VALID,19.1835,VALID,111,VALID,0,
2000-03-18, 01:45:00,VALID,0,VALID,97.0667,VALID,-0.0849042,VALID,19.1994,VALID,100,VALID,0.269336,
2000-03-18, 01:46:00,VALID,0,VALID,97.0946,VALID,-0.101885,VALID,19.2289,VALID,94,VALID,0.0533854,
2000-03-18, 01:47:00,VALID,0,VALID,96.8925,VALID,-0.118866,VALID,19.219,VALID,94,VALID,0,
2000-03-18, 01:48:00,VALID,0,VALID,96.5758,VALID,-0.101885,VALID,19.1929,VALID,94,VALID,0,
2000-03-18, 01:49:00,VALID,0,VALID,96.2923,VALID,-0.101885,VALID,19.174,VALID,94,VALID,0,
2000-03-18, 01:50:00,VALID,0,VALID,96.6445,VALID,-0.101885,VALID,19.2063,VALID,94,VALID,0,
2000-03-18, 01:51:00,VALID,0,VALID,96.2923,VALID,-0.101885,VALID,19.1636,VALID,95,VALID,0,
2000-03-18, 01:52:00,VALID,0,VALID,95.8828,VALID,-0.101885,VALID,19.1323,VALID,103,VALID,0.509046,
2000-03-18, 01:53:00,VALID,0,VALID,96.5542,VALID,-0.118866,VALID,19.1159,VALID,103,VALID,0.763775,
2000-03-18, 01:54:00,VALID,0,VALID,96.7882,VALID,-0.118866,VALID,19.106,VALID,105,VALID,0.410684,
2000-03-18, 01:55:01,VALID,0,VALID,96.9535,VALID,-0.0849042,VALID,19.0958,VALID,108,VALID,0.218133,
2000-03-18, 01:56:00,VALID,0,VALID,97.1862,VALID,-0.101885,VALID,19.1087,VALID,114,VALID,0.0904605,
2000-03-18, 01:57:00,VALID,0,VALID,97.246,VALID,-0.0169808,VALID,19.1267,VALID,121,VALID,0.281822,
2000-03-18, 01:58:00,VALID,0,VALID,96.8607,VALID,0,VALID,19.1078,VALID,121,VALID,0,
2000-03-18, 01:59:00,VALID,0,VALID,96.8657,VALID,0,VALID,19.1145,VALID,121,VALID,0,
2000-03-18, 02:00:00,VALID,0,VALID,96.9726,VALID,0,VALID,19.107,VALID,120,VALID,0,
2000-03-18, 02:01:00,VALID,0,VALID,97.0501,VALID,0,VALID,19.1234,VALID,120,VALID,0,
2000-03-18, 02:02:00,VALID,0,VALID,97.1569,VALID,0,VALID,19.1532,VALID,120,VALID,0,
2000-03-18, 02:03:00,VALID,0,VALID,97.4202,VALID,0,VALID,19.1984,VALID,120,VALID,0,
2000-03-18, 02:04:00,VALID,0,VALID,97.4977,VALID,0,VALID,19.2238,VALID,120,VALID,0,
2000-03-18, 02:05:00,VALID,0,VALID,97.4685,VALID,0,VALID,19.2558,VALID,119,VALID,0,
2000-03-18, 02:06:00,VALID,0,VALID,97.4481,VALID,0,VALID,19.2846,VALID,98,VALID,0,
2000-03-18, 02:07:00,VALID,0,VALID,96.6114,VALID,0.0169808,VALID,19.2498,VALID,89,VALID,0,
2000-03-18, 02:08:00,VALID,0,VALID,95.7874,VALID,0.0169808,VALID,19.227,VALID,89,VALID,0,
2000-03-18, 02:09:00,VALID,0,VALID,96.1549,VALID,0,VALID,19.2556,VALID,89,VALID,0,
2000-03-18, 02:10:00,VALID,0,VALID,96.3304,VALID,0,VALID,19.2752,VALID,89,VALID,0,
2000-03-18, 02:11:00,VALID,0,VALID,95.8675,VALID,0.0509425,VALID,19.2789,VALID,232,VALID,0,
2000-03-18, 02:12:00,VALID,0,VALID,96.146,VALID,0.0169808,VALID,19.2879,VALID,261,VALID,0,
2000-03-18, 02:13:00,VALID,0,VALID,96.2948,VALID,0,VALID,19.2909,VALID,263,VALID,0,
2000-03-18, 02:14:00,VALID,0,VALID,96.3965,VALID,-0.0169808,VALID,19.311,VALID,263,VALID,0,
2000-03-18, 02:15:00,VALID,0,VALID,96.4563,VALID,0.0169808,VALID,19.3239,VALID,263,VALID,0,
2000-03-18, 02:16:00,VALID,0,VALID,96.5847,VALID,0.0169808,VALID,19.3403,VALID,253,VALID,0,
2000-03-18, 02:17:00,VALID,0,VALID,96.7488,VALID,0.0339617,VALID,19.3758,VALID,232,VALID,0,
2000-03-18, 02:18:00,VALID,0,VALID,96.3991,VALID,0.0339617,VALID,19.343,VALID,232,VALID,0,
2000-03-18, 02:19:00,VALID,0,VALID,96.3164,VALID,0.0169808,VALID,19.3299,VALID,232,VALID,0,
2000-03-18, 02:20:00,VALID,0,VALID,95.9515,VALID,0,VALID,19.2913,VALID,232,VALID,0,
2000-03-18, 02:21:00,VALID,0,VALID,96.5059,VALID,0.0169808,VALID,19.3005,VALID,232,VALID,0,
2000-03-18, 02:22:00,VALID,0,VALID,97.0196,VALID,0.0169808,VALID,19.3428,VALID,191,VALID,0,
2000-03-18, 02:23:00,VALID,0,VALID,97.0883,VALID,0.0339617,VALID,19.3684,VALID,184,VALID,0,
2000-03-18, 02:24:00,VALID,0,VALID,96.6572,VALID,0,VALID,19.3423,VALID,203,VALID,0,
2000-03-18, 02:25:00,VALID,0,VALID,96.9726,VALID,0,VALID,19.3979,VALID,294,VALID,0,
2000-03-18, 02:26:00,VALID,0,VALID,96.9204,VALID,0.0169808,VALID,19.4101,VALID,310,VALID,0,
2000-03-18, 02:27:00,VALID,0,VALID,96.7488,VALID,-0.0509425,VALID,19.4178,VALID,316,VALID,0,
2000-03-18, 02:28:00,VALID,0,VALID,95.9566,VALID,-0.0339617,VALID,19.3892,VALID,316,VALID,0,
2000-03-18, 02:29:00,VALID,0,VALID,95.7366,VALID,-0.0339617,VALID,19.3765,VALID,278,VALID,0,
2000-03-18, 02:30:00,VALID,0,VALID,95.4848,VALID,0,VALID,19.3405,VALID,188,VALID,0,
2000-03-18, 02:31:00,VALID,0,VALID,95.7111,VALID,-0.0169808,VALID,19.3278,VALID,188,VALID,0,
2000-03-18, 02:32:00,VALID,0,VALID,96.0596,VALID,-0.0169808,VALID,19.3274,VALID,187,VALID,0,
2000-03-18, 02:33:00,VALID,0,VALID,96.2414,VALID,-0.0679233,VALID,19.3274,VALID,116,VALID,0.25641,
2000-03-18, 02:34:00,VALID,0,VALID,96.3775,VALID,-0.0679233,VALID,19.3341,VALID,98,VALID,0.684416,
2000-03-18, 02:35:00,VALID,0,VALID,96.1028,VALID,-0.0339617,VALID,19.2953,VALID,97,VALID,0.258247,
2000-03-18, 02:36:00,VALID,0,VALID,96.628,VALID,-0.0339617,VALID,19.3147,VALID,99,VALID,0.573884,
2000-03-18, 02:37:00,VALID,0,VALID,96.483,VALID,-0.0509425,VALID,19.2856,VALID,96,VALID,0.381785,
2000-03-18, 02:38:00,VALID,0,VALID,96.2185,VALID,-0.0679233,VALID,19.2575,VALID,97,VALID,0.347245,
2000-03-18, 02:39:00,VALID,0,VALID,96.1168,VALID,-0.0339617,VALID,19.1984,VALID,107,VALID,0.63239,
2000-03-18, 02:40:00,VALID,0,VALID,96.1536,VALID,-0.0509425,VALID,19.1631,VALID,108,VALID,0.411595,
2000-03-18, 02:41:00,VALID,0,VALID,96.1956,VALID,-0.0679233,VALID,19.1179,VALID,113,VALID,0.0104852,
2000-03-18, 02:42:00,VALID,0,VALID,96.4448,VALID,-0.0509425,VALID,19.0856,VALID,117,VALID,0,
2000-03-18, 02:43:00,VALID,0,VALID,96.6763,VALID,-0.0339617,VALID,19.0755,VALID,117,VALID,0,
2000-03-18, 02:44:00,VALID,0,VALID,96.9242,VALID,-0.0169808,VALID,19.0628,VALID,190,VALID,0,
2000-03-18, 02:45:00,VALID,0,VALID,97.2701,VALID,-0.0169808,VALID,19.0921,VALID,266,VALID,0,
2000-03-18, 02:46:00,VALID,0,VALID,97.4164,VALID,-0.0339617,VALID,19.0988,VALID,263,VALID,0,
2000-03-18, 02:47:00,VALID,0,VALID,96.4054,VALID,-0.0169808,VALID,18.9952,VALID,236,VALID,0,
2000-03-18, 02:48:00,VALID,0,VALID,95.4772,VALID,-0.0169808,VALID,18.8949,VALID,144,VALID,0,
2000-03-18, 02:49:01,VALID,0,VALID,95.289,VALID,-0.0339617,VALID,18.8077,VALID,93,VALID,0,
2000-03-18, 02:50:00,VALID,0,VALID,96.1994,VALID,-0.0169808,VALID,18.7854,VALID,97,VALID,0.444444,
2000-03-18, 02:51:00,VALID,0,VALID,96.7907,VALID,-0.0679233,VALID,18.7692,VALID,108,VALID,0.664286,
2000-03-18, 02:52:00,VALID,0,VALID,97.1074,VALID,-0.0339617,VALID,18.7494,VALID,113,VALID,0.583882,
2000-03-18, 02:53:00,VALID,0,VALID,97.9263,VALID,-0.0339617,VALID,18.8631,VALID,104,VALID,0.581826,
2000-03-18, 02:54:00,VALID,0,VALID,98.2073,VALID,-0.0339617,VALID,18.9466,VALID,118,VALID,0.317779,
2000-03-18, 02:55:00,VALID,0,VALID,98.159,VALID,-0.0339617,VALID,18.9438,VALID,121,VALID,0.000205592,
2000-03-18, 02:56:00,VALID,0,VALID,98.1869,VALID,0,VALID,18.9431,VALID,121,VALID,0.238487,
2000-03-18, 02:57:00,VALID,0,VALID,98.4311,VALID,-0.0339617,VALID,19.0176,VALID,138,VALID,0,
2000-03-18, 02:58:00,VALID,0,VALID,98.2887,VALID,-0.0169808,VALID,19.0181,VALID,197,VALID,0,
2000-03-18, 02:59:00,VALID,0,VALID,98.4438,VALID,-0.0509425,VALID,19.0439,VALID,196,VALID,0,
2000-03-18, 03:00:00,VALID,0,VALID,98.5608,VALID,-0.0169808,VALID,19.0951,VALID,197,VALID,0,
2000-03-18, 03:01:01,VALID,0,VALID,98.4451,VALID,-0.0339617,VALID,19.1048,VALID,197,VALID,0,
2000-03-18, 03:02:00,VALID,0,VALID,98.3764,VALID,0,VALID,19.0889,VALID,197,VALID,0,
2000-03-18, 03:03:00,VALID,0,VALID,98.3052,VALID,-0.0339617,VALID,19.0856,VALID,197,VALID,0,
2000-03-18, 03:04:00,VALID,0,VALID,98,VALID,-0.0679233,VALID,19.0245,VALID,197,VALID,0,
2000-03-18, 03:05:00,VALID,0,VALID,97.5893,VALID,0,VALID,18.9731,VALID,196,VALID,0,
2000-03-18, 03:06:00,VALID,0,VALID,97.0489,VALID,-0.0509425,VALID,18.8951,VALID,196,VALID,0,
2000-03-18, 03:07:00,VALID,0,VALID,97.3235,VALID,-0.0339617,VALID,18.9113,VALID,196,VALID,0,
2000-03-18, 03:08:00,VALID,0,VALID,97.4189,VALID,-0.0509425,VALID,18.9177,VALID,196,VALID,0,
2000-03-18, 03:09:00,VALID,0,VALID,97.2892,VALID,-0.0339617,VALID,18.8691,VALID,196,VALID,0,
2000-03-18, 03:10:00,VALID,0,VALID,97.1239,VALID,-0.0679233,VALID,18.8631,VALID,196,VALID,0,
2000-03-18, 03:11:00,VALID,0,VALID,97.1544,VALID,-0.0509425,VALID,18.8499,VALID,196,VALID,0,
2000-03-18, 03:12:01,VALID,0,VALID,97.0997,VALID,-0.0509425,VALID,18.84,VALID,172,VALID,0,
2000-03-18, 03:13:00,VALID,0,VALID,97.1404,VALID,-0.0339617,VALID,18.8502,VALID,153,VALID,0,
2000-03-18, 03:14:00,VALID,0,VALID,97.4354,VALID,-0.0679233,VALID,18.8758,VALID,152,VALID,0,
2000-03-18, 03:15:00,VALID,0,VALID,97.9186,VALID,-0.0339617,VALID,18.9537,VALID,152,VALID,0,
2000-03-18, 03:16:00,VALID,0,VALID,98.1463,VALID,-0.0509425,VALID,19.0218,VALID,157,VALID,0,
2000-03-18, 03:17:00,VALID,0,VALID,97.9784,VALID,-0.0339617,VALID,19.0146,VALID,182,VALID,0,
2000-03-18, 03:18:00,VALID,0,VALID,98.0115,VALID,-0.0679233,VALID,19.0178,VALID,182,VALID,0,
2000-03-18, 03:19:00,VALID,0,VALID,98.1043,VALID,-0.0509425,VALID,19.0536,VALID,182,VALID,0,
2000-03-18, 03:20:00,VALID,0,VALID,98.1946,VALID,-0.0339617,VALID,19.0891,VALID,183,VALID,0,
2000-03-18, 03:21:00,VALID,0,VALID,98.1755,VALID,-0.0509425,VALID,19.112,VALID,184,VALID,0,
2000-03-18, 03:22:00,VALID,0,VALID,98.1666,VALID,-0.0509425,VALID,19.1179,VALID,184,VALID,0,
2000-03-18, 03:23:00,VALID,0,VALID,98.2709,VALID,-0.0509425,VALID,19.1666,VALID,184,VALID,0,
2000-03-18, 03:24:00,VALID,0,VALID,98.0407,VALID,-0.0849042,VALID,19.1569,VALID,123,VALID,0,
2000-03-18, 03:25:00,VALID,0,VALID,97.8716,VALID,-0.0679233,VALID,19.1408,VALID,117,VALID,0,
2000-03-18, 03:26:00,VALID,0,VALID,98.0127,VALID,-0.0509425,VALID,19.1865,VALID,117,VALID,0,
2000-03-18, 03:27:00,VALID,0,VALID,98.1132,VALID,-0.0169808,VALID,19.2113,VALID,117,VALID,0,
2000-03-18, 03:28:00,VALID,0,VALID,97.9771,VALID,0,VALID,19.2012,VALID,117,VALID,0,
2000-03-18, 03:29:00,VALID,0,VALID,97.6567,VALID,0,VALID,19.1594,VALID,117,VALID,0,
2000-03-18, 03:30:00,VALID,0,VALID,97.5689,VALID,0.0169808,VALID,19.159,VALID,117,VALID,0,
2000-03-18, 03:31:00,VALID,0,VALID,97.8271,VALID,-0.0169808,VALID,19.2275,VALID,117,VALID,0,
2000-03-18, 03:32:00,VALID,0,VALID,97.8805,VALID,0,VALID,19.2531,VALID,117,VALID,0,
2000-03-18, 03:33:01,VALID,0,VALID,97.8195,VALID,0,VALID,19.2556,VALID,117,VALID,0,
2000-03-18, 03:34:01,VALID,0,VALID,97.8169,VALID,0.0339617,VALID,19.2717,VALID,117,VALID,0,
2000-03-18, 03:35:00,VALID,0,VALID,97.8233,VALID,0,VALID,19.3077,VALID,117,VALID,0,
2000-03-18, 03:36:00,VALID,0,VALID,97.794,VALID,0,VALID,19.3135,VALID,117,VALID,0,
2000-03-18, 03:37:00,VALID,0,VALID,97.7686,VALID,0,VALID,19.3465,VALID,117,VALID,0,
2000-03-18, 03:38:00,VALID,0,VALID,97.7699,VALID,0,VALID,19.3721,VALID,117,VALID,0,
2000-03-18, 03:39:00,VALID,0,VALID,97.8665,VALID,0,VALID,19.4237,VALID,117,VALID,0,
2000-03-18, 03:40:00,VALID,0,VALID,97.9682,VALID,0.0169808,VALID,19.4784,VALID,126,VALID,0,
2000-03-18, 03:41:00,VALID,0,VALID,97.9682,VALID,0,VALID,19.5234,VALID,131,VALID,0,
2000-03-18, 03:42:00,VALID,0,VALID,97.8309,VALID,0.0339617,VALID,19.51,VALID,131,VALID,0,
2000-03-18, 03:43:00,VALID,0,VALID,97.4723,VALID,0.0169808,VALID,19.4973,VALID,131,VALID,0,
2000-03-18, 03:44:00,VALID,0,VALID,97.2256,VALID,0.0509425,VALID,19.4941,VALID,127,VALID,0,
2000-03-18, 03:45:01,VALID,0,VALID,97.2218,VALID,0.0849042,VALID,19.507,VALID,108,VALID,0.130273,
2000-03-18, 03:46:00,VALID,0,VALID,97.2116,VALID,0.0339617,VALID,19.4878,VALID,93,VALID,0.798177,
2000-03-18, 03:47:00,VALID,0,VALID,97.3935,VALID,0.0509425,VALID,19.4878,VALID,89,VALID,0.748633,
2000-03-18, 03:48:00,VALID,0,VALID,97.5321,VALID,0.0339617,VALID,19.4685,VALID,87,VALID,0.621194,
2000-03-18, 03:49:00,VALID,0,VALID,97.644,VALID,0.0169808,VALID,19.4555,VALID,88,VALID,0.488281,
2000-03-18, 03:50:00,VALID,0,VALID,97.6948,VALID,0.0169808,VALID,19.4396,VALID,103,VALID,0.468533,
2000-03-18, 03:51:00,VALID,0,VALID,97.8945,VALID,0.0169808,VALID,19.4622,VALID,117,VALID,0.350446,
2000-03-18, 03:52:00,VALID,0,VALID,98.1272,VALID,0.0339617,VALID,19.4811,VALID,124,VALID,0.237253,
2000-03-18, 03:53:00,VALID,0,VALID,98.1653,VALID,0,VALID,19.507,VALID,125,VALID,0,
2000-03-18, 03:54:00,VALID,0,VALID,98.1386,VALID,0.0169808,VALID,19.5137,VALID,133,VALID,0,
2000-03-18, 03:55:01,VALID,0,VALID,98.1361,VALID,0,VALID,19.5169,VALID,143,VALID,0,
2000-03-18, 03:56:01,VALID,0,VALID,98.1437,VALID,0.0339617,VALID,19.5393,VALID,152,VALID,0,
2000-03-18, 03:57:00,VALID,0,VALID,98.1463,VALID,-0.0509425,VALID,19.5601,VALID,154,VALID,0,
2000-03-18, 03:58:00,VALID,0,VALID,98.1106,VALID,-0.0169808,VALID,19.5698,VALID,154,VALID,0,
2000-03-18, 03:59:00,VALID,0,VALID,98.1017,VALID,-0.0679233,VALID,19.5788,VALID,153,VALID,0,
2000-03-18, 04:00:00,VALID,0,VALID,98.1539,VALID,-0.101885,VALID,19.5956,VALID,152,VALID,0,
2000-03-18, 04:01:00,VALID,0,VALID,98.1106,VALID,-0.101885,VALID,19.6088,VALID,152,VALID,0,
2000-03-18, 04:02:00,VALID,0,VALID,98.1157,VALID,-0.101885,VALID,19.6083,VALID,152,VALID,0,
2000-03-18, 04:03:00,VALID,0,VALID,98.1272,VALID,-0.0509425,VALID,19.6344,VALID,152,VALID,0,
2000-03-18, 04:04:00,VALID,0,VALID,98.1742,VALID,-0.101885,VALID,19.6702,VALID,152,VALID,0,
2000-03-18, 04:05:00,VALID,0,VALID,98.1717,VALID,-0.0679233,VALID,19.696,VALID,152,VALID,0,
2000-03-18, 04:06:00,VALID,0,VALID,98.0763,VALID,-0.0509425,VALID,19.6925,VALID,108,VALID,0,
2000-03-18, 04:07:01,VALID,0,VALID,98.0216,VALID,-0.0849042,VALID,19.6923,VALID,105,VALID,0,
2000-03-18, 04:08:00,VALID,0,VALID,97.9428,VALID,-0.0679233,VALID,19.6858,VALID,102,VALID,0,
2000-03-18, 04:09:00,VALID,0,VALID,97.8729,VALID,-0.0679233,VALID,19.6729,VALID,96,VALID,0.58636,
2000-03-18, 04:10:00,VALID,0,VALID,97.897,VALID,-0.101885,VALID,19.6699,VALID,93,VALID,0.757401,
2000-03-18, 04:11:00,VALID,0,VALID,97.9275,VALID,-0.0509425,VALID,19.6635,VALID,93,VALID,0.335526,
2000-03-18, 04:12:00,VALID,0,VALID,97.9708,VALID,0.0169808,VALID,19.6491,VALID,93,VALID,0,
2000-03-18, 04:13:00,VALID,0,VALID,97.9962,VALID,0.0509425,VALID,19.6587,VALID,93,VALID,0,
2000-03-18, 04:14:00,VALID,0,VALID,98.0102,VALID,0.0339617,VALID,19.6488,VALID,95,VALID,0,
2000-03-18, 04:15:00,VALID,0,VALID,98.0102,VALID,0.0339617,VALID,19.652,VALID,149,VALID,0.003125,
2000-03-18, 04:16:00,VALID,0,VALID,98.0165,VALID,0,VALID,19.6491,VALID,206,VALID,0.11046,
2000-03-18, 04:17:00,VALID,0.2,VALID,98.0598,VALID,0.0339617,VALID,19.6456,VALID,151,VALID,0,